INTELSAT 22 (IS-22)

Last updated on Jan. 15, 2021, 6:31 a.m. UTC

1 38098U 12011A   21014.89576286 -.00000066  00000-0  00000-0 0  9995
2 38098   0.0151  54.0953 0002811 237.0626 217.9823  1.00271690 31979
UTC
Height (km)
Latitude
Longitude
Inclination
Orbital Period
UTC large
Height (km)
Speed (km/s)
/
Latitude / Longitude
Inclination (degrees)
Orbital Period (minutes)
Azimuth
Elevation
Range (km)
Doppler Factor
iOS Compass Heading
iOS Angle

Next 30 passes for location: Hong Kong

Rise time Rise Azimuth (degrees) Set time Set Azimuth (degrees) Duration Max altitude (degrees)

No matching passes for this satellites